sat.trackr.live / text

‹ back to catalog

STARLINK-1482

NORAD 45773 · 2020-038AV

PAYLOAD ACTIVE UNKNOWN

§ Identity

Operator
Country
US
Launch date
2020-06-13
Launch site
AFETR
Launch vehicle
Mass (kg)
RCS (m²)

Purposes: comms

External: N2YO · Heavens-Above · Gunter

§ Orbital elements

Epoch: 2026-09-19T19:19:41.319840Z

Period
93.12 min
Inclination
53.1545°
Eccentricity
0.0002785
Mean motion
15.46352292 rev/d
Perigee alt
425.5 km
Apogee alt
429.3 km
Semi-major
6,805.5 km
B*
9.6199e-4
RAAN
358.0458°
Arg perigee
344.1693°
Mean anomaly
15.9228°
Rev number
34,672

§ Raw data

STARLINK-14821 45773U 20038AV  26262.80533935  .00048138  00000+0  96199-3 0  99932 45773  53.1545 358.0458 0002785 344.1693  15.9228 15.46352292346724

JSON: /api/v1/satellites/45773 · /tle

For live sub-satellite position, see the globe view (requires WebGL).

§ Visibility from observer

Set your observer location to see the next 7 days of passes ≥ 10°. The values pass through the URL so the page stays shareable.

No JS? Fill the form by hand. The geolocation button needs JavaScript.